Simultaneous Nadir Overpasses (SNOs) Predictions

Prediction of SNOs between METOP-A and TERRA Satellite Orbit:

Table of predicted SNOs for the next 14.0 days since TLE Epoch: 8/20/2016
Index Date (METOP-A) Time (METOP-A) Lat,Lon (METOP-A) SZA (METOP-A ) Date (TERRA) Time (TERRA) Lat,Lon (TERRA) SZA (TERRA ) Distance(km) Time Diff (sec)
1 08/20/2016 02:34:48 81.33,-170.67 71.84 08/20/2016 02:34:10 81.34,-170.53 71.84 2.52 38
2 08/22/2016 21:18:30 -81.32, 87.82 107.29 08/22/2016 21:18:58 -81.32, 87.86 107.28 1.06 28
3 08/22/2016 22:09:09 81.33,-104.31 72.79 08/22/2016 22:08:24 81.32,-104.46 72.74 2.85 45
4 08/25/2016 16:52:49 -81.33, 154.55 106.27 08/25/2016 16:53:09 -81.34, 154.64 106.25 1.66 20
5 08/25/2016 17:43:28 81.33, -37.57 73.81 08/25/2016 17:42:35 81.34, -37.70 73.77 2.17 53
6 08/
